Zurück zum Katalog

QIANFAN-75

AktivKommunikationPO
NORAD 63161·PAYLOAD·🇨🇳 China

Gestartet Mar 11, 2025 von Wenchang Space Launch Site

Loading…

Nächste Überflüge (nächste 24 Stunden)

TLE

AktuellSource: Space-Track

Epoche: Sep 14, 2026, 21:43 UTC

1 63161U 25046C   26257.90548684  .00000087  00000-0  11573-3 0  9995
2 63161  88.9652 291.4781 0017659  54.2340 306.0450 13.51030343 84637

Verfolge QIANFAN-75 in Echtzeit mit AllMySat

Download on the App Store